Location: NCO
(38.4212°N, 77.1417°W)
Time: 04:51:35
(UTC-04:00)

ACS3 Solar Sail - Visible Passes

Search period start: 21 May 2026 00:00
Search period end: 31 May 2026 00:00
Orbit: 902 x 937 km, 97.2° (Epoch: 20 May)

Date Brightness Start Highest point End Pass type
(mag) Time Alt. Az. Time Alt. Az. Time Alt. Az.
21 May 2.0 01:32:13 10° NNE 01:37:33 57° ENE 01:37:33 57° ENE visible
21 May 3.3 03:15:45 10° NNW 03:19:51 20° WNW 03:21:01 19° W visible
22 May 1.8 01:40:33 10° NNE 01:46:05 69° ENE 01:46:05 69° ENE visible
22 May 3.5 03:24:34 10° NNW 03:28:06 17° WNW 03:29:33 15° W visible
23 May 1.6 01:48:54 10° NNE 01:54:37 82° NE 01:54:37 82° NE visible
23 May 3.7 03:33:31 10° NNW 03:36:21 14° WNW 03:38:05 12° W visible
24 May 3.9 00:17:47 10° ENE 00:19:41 13° E 00:19:41 13° E visible
24 May 1.6 01:57:17 10° N 02:03:09 81° WNW 02:03:09 81° WNW visible
24 May 3.8 03:42:49 10° NW 03:44:34 11° WNW 03:46:19 10° WNW visible
25 May 3.7 00:25:20 10° NE 00:28:12 16° E 00:28:12 16° E visible
25 May 1.7 02:05:42 10° N 02:11:34 68° WNW 02:11:40 68° W visible
26 May 3.5 00:33:09 10° NE 00:36:44 19° E 00:36:44 19° E visible
26 May 1.9 02:14:08 10° N 02:19:55 57° WNW 02:20:12 56° W visible
27 May 3.2 00:41:07 10° NE 00:45:15 23° E 00:45:15 23° E visible
27 May 2.1 02:22:35 10° N 02:28:15 48° WNW 02:28:43 47° W visible
28 May 3.0 00:49:11 10° NE 00:53:46 28° E 00:53:46 28° E visible
28 May 2.4 02:31:06 10° N 02:36:34 40° WNW 02:37:14 39° W visible
29 May 2.7 00:57:20 10° NNE 01:02:16 33° E 01:02:16 33° E visible
29 May 2.6 02:39:37 10° N 02:44:52 34° WNW 02:45:44 32° W visible
30 May 2.5 01:05:31 10° NNE 01:10:47 40° E 01:10:47 40° E visible
30 May 2.9 02:48:12 10° NNW 02:53:09 28° WNW 02:54:15 27° W visible
